Location: El Álamo
(40.2307°N, 3.9945°W)
Time: 04:48:21
(UTC+00:00)

Cosmos 2082 Rocket - Pass Details

Date: 19 May 2025
Orbit: 831 x 853 km, 71.0° (Epoch: 23 June)

Event Time Altitude Azimuth Distance (km) Brightness Sun altitude
Exits shadow 23:23:27 23° 259° (WSW) 1,687 3.7 -28.7°
Maximum altitude 23:25:53 33° 302° (WNW) 1,370 3.6 -28.8°
Drops below altitude 10° 23:30:56 10° 6° (N) 2,452 5.5 -29.0°
Sets 23:33:38 0° 16° (NNE) 3,393 6.3 -29.1°
